7 * 24
多渠道服务支持
STARLINK-34286是美国太空探索技术公司SpaceX于2025年7月30日发射的星链(Starlink)项目卫星,属于星链低轨互联网星座的一员。星链星座旨在为全球提供高速低延迟宽带互联网服务,重点覆盖传统基础设施缺失的偏远地区,可支持视频通话、在线网络等应用。该卫星运行在近地轨道,是SpaceX持续拓展星链网络规模、完善全球覆盖能力的重要组成部分,将助力星座容量与覆盖性能进一步提升。
美国
(US)
| 数据来源 | 国际轨道数据 |
| 星历时间: | 2026-04-28T21:10:49+0800 22小时前 查看轨道信息 |
| 半长轴: | 6853.345km |
| 偏心率: | 0.0001439 |
| 轨道倾角: | 53.162° |
| 近地点辐角 | 72.123° |
| 升交点赤经 | 62.594° |
| 平近点角 | 287.993° |
| 近地点: | 474.221km |
| 远地点: | 476.195km |
| 周期: | 94.105分钟 |
| 每日圈数: | 15.302027 |